Location: Saint-Usage
(47.1052°N, 5.2587°E)
Time: 09:36:51
(UTC+02:00)

Envisat - Pass Details

Date: 29 September 2021
Orbit: 764 x 766 km, 98.2° (Epoch: 25 October)

Event Time Altitude Azimuth Distance (km) Brightness Sun altitude
Rises 06:47:09 0° 15° (NNE) 3,243 6.5 -9.0°
Reaches altitude 10° 06:49:28 10° 17° (NNE) 2,312 5.8 -8.6°
Maximum altitude 06:54:34 73° 102° (ESE) 801 3.3 -7.7°
Drops below altitude 10° 06:59:37 10° 188° (S) 2,294 5.4 -6.9°
Sets 07:01:55 0° 190° (S) 3,215 6.1 -6.5°
